Simultaneous Nadir Overpasses (SNOs) Predictions

Prediction of SNOs between AQUA and METOP-B Satellite Orbit:

Table of predicted SNOs for the next 14.0 days since TLE Epoch: 11/16/2018
Index Date (AQUA) Time (AQUA) Lat,Lon (AQUA) SZA (AQUA ) Date (METOP-B) Time (METOP-B) Lat,Lon (METOP-B) SZA (METOP-B ) Distance(km) Time Diff (sec)
1 11/18/2018 08:18:09 -73.87,-130.42 86.97 11/18/2018 08:17:40 -73.89,-130.50 86.95 3.11 29
2 11/18/2018 09:07:37 73.93, 37.09 93.10 11/18/2018 09:08:19 73.95, 36.97 93.12 3.97 42
3 11/21/2018 03:52:24 -73.89, -64.02 86.31 11/21/2018 03:52:04 -73.91, -64.04 86.28 2.38 20
4 11/21/2018 04:41:52 73.95, 103.48 93.77 11/21/2018 04:42:43 73.97, 103.43 93.78 2.52 51
5 11/23/2018 22:37:06 73.51,-164.40 93.90 11/23/2018 22:35:57 73.46,-166.04 93.87 52.12 69
6 11/23/2018 23:26:40 -73.91, 2.36 85.68 11/23/2018 23:26:29 -73.93, 2.41 85.66 2.39 11
7 11/24/2018 00:16:08 73.98, 169.87 94.39 11/24/2018 00:17:08 73.98, 169.88 94.40 1.17 60
8 11/26/2018 18:11:28 73.85, -98.71 94.81 11/26/2018 18:10:15 73.82, -98.77 94.78 4.32 73
9 11/26/2018 19:00:55 -73.89, 68.85 85.15 11/26/2018 19:00:55 -73.90, 68.74 85.14 3.36 0
10 11/26/2018 19:50:24 74.01,-123.77 94.98 11/26/2018 19:51:33 74.00,-123.67 94.97 2.87 69
11 11/29/2018 13:45:42 73.84, -32.24 95.29 11/29/2018 13:44:39 73.84, -32.33 95.29 3.03 63
12 11/29/2018 14:35:10 -73.93, 135.20 84.61 11/29/2018 14:35:19 -73.92, 135.19 84.63 1.33 9




NCC Satellite Simultaneous Nadir Overpasses (SNOs) Prediction Service
